This is the latest recevied weather packets stored in our database for station/object K5GHS-1. If no packets are shown the sender has not sent any weather packets the latest 10 day(s).
| Time | Temp. | Humidity | Pressure | Rain* | Wind** | Luminosity | Snow |
|---|---|---|---|---|---|---|---|
| 1777991994 | 25° C | 77% | 1003 hPa | 0 mm | - | 321 W/m² | - |
| 1777991691 | 24.44° C | 80% | 1003 hPa | 0 mm | - | 254 W/m² | - |
| 1777991388 | 23.89° C | 80% | 1002.6 hPa | 0 mm | - | 183 W/m² | - |
| 1777991085 | 23.89° C | 81% | 1002.6 hPa | 0 mm | - | 226 W/m² | - |
| 1777990783 | 23.89° C | 81% | 1002.6 hPa | 0 mm | - | 185 W/m² | - |
| 1777990480 | 23.89° C | 81% | 1003 hPa | 0 mm | - | 150 W/m² | - |
| 1777989873 | 23.33° C | 82% | 1003 hPa | 0 mm | - | 133 W/m² | - |
| 1777989570 | 23.33° C | 82% | 1003.1 hPa | 0 mm | - | 108 W/m² | - |
| 1777989266 | 23.33° C | 82% | 1003.2 hPa | 0 mm | - | 114 W/m² | - |
| 1777988963 | 23.33° C | 83% | 1003.1 hPa | 0 mm | - | 105 W/m² | - |
| 1777988660 | 22.78° C | 83% | 1003.3 hPa | 0 mm | - | 83 W/m² | - |
| 1777988356 | 22.78° C | 83% | 1002.8 hPa | 0 mm | - | 65 W/m² | - |
| 1777988054 | 22.78° C | 82% | 1002.8 hPa | 0 mm | - | 64 W/m² | - |
| 1777987749 | 22.78° C | 83% | 1002.7 hPa | 0 mm | - | 77 W/m² | - |
| 1777987446 | 22.78° C | 83% | 1002.7 hPa | 0 mm | - | 82 W/m² | - |
| 1777987143 | 22.78° C | 83% | 1002.8 hPa | 0 mm | - | 88 W/m² | - |
| 1777986840 | 22.78° C | 83% | 1003.1 hPa | 0 mm | - | 71 W/m² | - |
| 1777986538 | 22.78° C | 83% | 1003.2 hPa | 0 mm | - | 59 W/m² | - |
| 1777986236 | 22.78° C | 83% | 1002.6 hPa | 0 mm | - | 32 W/m² | - |
| 1777985933 | 22.78° C | 83% | 1003 hPa | 0 mm | - | 44 W/m² | - |
| 1777985631 | 22.78° C | 83% | 1003 hPa | 0 mm | - | 35 W/m² | - |
| 1777985327 | 22.78° C | 84% | 1002.7 hPa | 0 mm | - | 35 W/m² | - |
| 1777985024 | 22.22° C | 84% | 1002.7 hPa | 0 mm | - | 29 W/m² | - |
| 1777984719 | 22.22° C | 84% | 1002.5 hPa | 0 mm | - | 29 W/m² | - |
| 1777984416 | 22.22° C | 84% | 1002.3 hPa | 0 mm | - | 20 W/m² | - |
* Rain latest hour (hover to see other rain measurements)
** Current wind speed in m/s (hover to see current wind gust speed)